CZ-6A DEB, 54924

Orbit data source: Space-Track

CZ-6A DEB, 54924 is space debris in SSO originally from a launch on Fri, 11 Nov 2022 UTC launched from the Taiyaun Space Center, China (TSC). Debris objects in space refer to the collection of defunct objects orbiting the Earth. Examples of debris include non-operational satellites, rocket bodies, and fragments generated from explosions, collisions, or faulty payload assembly.

Loading next visibility...
Identifier
54924, 2022-151RM
Orbit
SSO
Country
Flag of CNCN / PRC
Related business
Manufacturer
SAST
Mission
Spacecraft
Bus & Motor
Unknown
Mass
Unknown
Launch date (UTC)
2022-11-11 (4 years ago)
Launch vehicle
Unknown
Launch site
Taiyaun Space Center, China (TSC)
Object type
Payload
Rocket body
Debris
Shape & HBR
Unknown shape, 0.1 m
Radar Cross Section
Small (<0.1 m²)

Expand to show TLE details & history
Last TLE update: 2 days ago

TLE from 2 days ago
0 CZ-6A DEB
1 54924U 22151RM  26171.36421405  .00002150  00000-0  69080-3 0  9991
2 54924  98.7314 211.5869 0036761 297.4804  62.2648 14.40059158187806
Epoch: 2026-06-20T08:44Z
TLE epoch observation values (Epoch: 2026-06-20T08:44:28.093Z)
Latitude
-0.00007°
Longitude
171.88996°
Altitude
749.108 km
Speed
7.486 km/s
True Right ascension
14h 06m 20s
True Declination
0° 00' 00"
Sunlit
Object was in full shadow at epoch
Visualization orbit readout
Latitude
Unknown
Longitude
Unknown
Altitude
Unknown
Speed
Unknown
Apparent Right ascension
Unknown
Apparent Declination
Unknown
Sunlit
N/A
Visualization observer readout
Local Sidereal Time
21:28:39
Azimuth
Unknown
Elevation
Unknown
Doppler factor
Unknown
Orbital elements
Apogee altitude
781.66 km
Perigee altitude
729.212 km
Semi-major axis
7,133.573 km
Eccentricity
0.00368
Inclination
98.7314°
RAAN
211.5869°
Arg. of periapsis
297.4804°
True anomaly
62.63845°
Mean anomaly
62.2648°
Eccentric anomaly
62.45154°
Mean motion
3.60232 °/min
Orbital period
99.94 mins
BSTAR
0.0006908
Loading maneuver chart data...
Computing Atmospheric mass density...
Loading historical data...
Loading historical data...
Loading historical data...
Loading historical data...
Loading historical data...
Loading historical data...
Loading historical data...

Documentation

Showing up to 5 results
|